FW6799 Weather Reports


time (UTC)temp
C
wind
direction
speed
KPH
gust
KPH
rain 1hr
cm
rain 24hr
cm
rain mn
cm
humidity
%
barometer
mb
20260506143054 25 94 24.1 38.6 0.00 0.00 0.00 32 1017.8
20260506141552 25 70 22.5 33.8 0.00 0.00 0.00 32 1018.0
20260506140051 25 94 19.3 32.2 0.00 0.00 0.00 32 1017.7
20260506134614 25 95 16.1 29.0 0.00 0.00 0.00 33 1017.6
20260506133051 25 101 16.1 25.7 0.00 0.00 0.00 34 1017.5
20260506131605 25 122 16.1 25.7 0.00 0.00 0.00 34 1017.5
20260506130050 25 104 12.9 24.1 0.00 0.00 0.00 35 1017.3
20260506124551 25 98 14.5 22.5 0.00 0.00 0.00 35 1017.3
20260506123142 25 89 9.7 20.9 0.00 0.00 0.00 36 1017.2
20260506121601 25 127 8.0 17.7 0.00 0.00 0.00 37 1017.0
20260506120053 25 108 8.0 14.5 0.00 0.00 0.00 37 1016.9
20260506114552 25 93 8.0 16.1 0.00 0.00 0.00 37 1016.8
20260506113047 26 111 11.3 17.7 0.00 0.00 0.00 38 1016.7
20260506111604 26 169 6.4 19.3 0.00 0.00 0.00 38 1016.7
20260506110051 26 112 9.7 19.3 0.00 0.00 0.00 38 1016.4
20260506104551 26 96 6.4 16.1 0.00 0.00 0.00 38 1016.1
20260506103045 26 111 8.0 16.1 0.00 0.00 0.00 37 1016.0
20260506101546 26 147 8.0 16.1 0.00 0.00 0.00 37 1015.7
20260506100049 27 92 8.0 16.1 0.00 0.00 0.00 36 1015.5
20260506094550 27 129 8.0 20.9 0.00 0.00 0.00 36 1015.5
20260506093052 27 112 14.5 25.7 0.00 0.00 0.00 35 1015.3
20260506091549 28 101 12.9 24.1 0.00 0.00 0.00 34 1015.2
20260506090053 28 94 17.7 27.4 0.00 0.00 0.00 33 1015.2
20260506084550 28 97 19.3 30.6 0.00 0.00 0.00 33 1015.0
20260506083109 29 58 14.5 27.4 0.00 0.00 0.00 32 1014.9
20260506081550 29 70 16.1 25.7 0.00 0.00 0.00 33 1014.7
20260506073053 30 106 17.7 30.6 0.00 0.00 0.00 31 1014.6
20260506071553 30 66 19.3 30.6 0.00 0.00 0.00 31 1014.5
20260506061549 30 143 16.1 30.6 0.00 0.00 0.00 31 1014.8
20260506044648 30 63 12.9 30.6 0.00 0.00 0.00 31 1015.7
20260506043045 28 117 12.9 37.0 0.00 0.00 0.00 30 1015.8
20260506041552 29 86 16.1 29.0 0.00 0.00 0.00 31 1016.0
20260506040047 28 110 12.9 30.6 0.00 0.00 0.00 30 1016.4
20260506034551 28 100 17.7 29.0 0.00 0.00 0.00 31 1016.6
20260506033047 27 87 24.1 33.8 0.00 0.00 0.00 30 1016.7
20260506031544 27 81 14.5 35.4 0.00 0.00 0.00 29 1016.9
20260506030047 27 79 20.9 32.2 0.00 0.00 0.00 29 1017.4
20260506024550 26 94 19.3 30.6 0.00 0.00 0.00 30 1017.7
20260506023047 26 139 20.9 32.2 0.00 0.00 0.00 29 1017.7
20260506021544 26 82 24.1 37.0 0.00 0.00 0.00 30 1017.9
20260506020048 26 118 20.9 35.4 0.00 0.00 0.00 29 1018.0
20260506014557 25 93 20.9 38.6 0.00 0.00 0.00 29 1018.1
20260506013049 25 102 20.9 43.5 0.00 0.00 0.00 30 1018.0
20260506011617 24 94 22.5 38.6 0.00 0.00 0.00 30 1018.1
20260506010048 23 82 20.9 40.2 0.00 0.00 0.00 31 1018.0
20260506004602 22 99 17.7 32.2 0.00 0.00 0.00 32 1017.8
20260506003049 21 100 17.7 35.4 0.00 0.00 0.00 32 1017.9
20260506001546 21 151 16.1 32.2 0.00 0.00 0.00 33 1017.7
20260506000154 20 125 16.1 35.4 0.00 0.00 0.00 34 1017.6
20260505234559 19 120 19.3 30.6 0.00 0.00 0.00 35 1017.4
20260505233059 18 128 16.1 29.0 0.00 0.00 0.00 37 1017.4
20260505231559 18 164 14.5 27.4 0.00 0.00 0.00 38 1017.5
20260505230117 17 134 19.3 27.4 0.00 0.00 0.00 38 1017.3
20260505224611 17 141 14.5 25.7 0.00 0.00 0.00 38 1017.1
20260505223222 17 136 12.9 25.7 0.00 0.00 0.00 39 1017.0
20260505221601 17 135 11.3 25.7 0.00 0.00 0.00 38 1016.9
20260505220050 17 101 14.5 24.1 0.00 0.00 0.00 38 1016.7
20260505214657 17 138 11.3 27.4 0.00 0.00 0.00 38 1016.5
20260505213100 17 131 16.1 27.4 0.00 0.00 0.00 38 1016.6
20260505210248 17 138 17.7 33.8 0.00 0.00 0.00 37 1016.4
20260505204613 17 147 20.9 32.2 0.00 0.00 0.00 36 1016.4
20260505203102 17 121 19.3 29.0 0.00 0.00 0.00 36 1016.4
20260505201620 17 172 16.1 22.5 0.00 0.00 0.00 36 1016.4
20260505200050 17 114 16.1 24.1 0.00 0.00 0.00 36 1016.4
20260505194620 18 126 14.5 25.7 0.00 0.00 0.00 36 1016.4
20260505193106 18 141 16.1 29.0 0.00 0.00 0.00 35 1016.3
20260505191612 18 170 16.1 25.7 0.00 0.00 0.00 35 1016.3
20260505190054 18 131 17.7 32.2 0.00 0.00 0.00 35 1016.3
20260505184610 18 172 14.5 25.7 0.00 0.00 0.00 34 1016.3
20260505183055 18 159 12.9 25.7 0.00 0.00 0.00 34 1016.5
20260505181624 18 139 14.5 25.7 0.00 0.00 0.00 34 1016.6
20260505180109 18 128 17.7 30.6 0.00 0.00 0.00 33 1016.6
20260505174546 18 123 19.3 29.0 0.00 0.00 0.00 33 1016.7
20260505173142 19 139 17.7 27.4 0.00 0.00 0.00 32 1016.7
20260505171704 19 117 19.3 29.0 0.00 0.00 0.00 32 1016.8
20260505170103 19 116 14.5 27.4 0.00 0.00 0.00 32 1017.0
20260505164626 20 116 16.1 29.0 0.00 0.00 0.00 31 1016.9
20260505163051 20 150 19.3 29.0 0.00 0.00 0.00 31 1017.0
20260505161554 20 131 16.1 27.4 0.00 0.00 0.00 30 1017.1
20260505160116 20 135 19.3 27.4 0.00 0.00 0.00 30 1017.1
20260505153132 20 153 14.5 24.1 0.00 0.00 0.00 29 1017.2
20260505151551 20 155 11.3 24.1 0.00 0.00 0.00 29 1017.4
20260505150108 20 151 12.9 24.1 0.00 0.00 0.00 28 1017.6